[[{"header":{"parameterUnit":"m.s-1","parameterCategory":2,"la1":30.2991,"la2":30.254,"lo1":-89.0895,"lo2":-89.0444,"dy":0.0017,"dx":0.0017,"nx":28,"ny":28,"refTime":"2024-02-24T09:00:00:Z","depth":"0","parameterNumber":2,"parameterNumberName":"U-component_of_CURRENTS"},"data":[0,0,0,0,0,0,0,0,0,0,0,0,0,0,0,0,0,0,0,0,0,0,0,0,0,0,0,0,0,0,0,0,0,0,0,0,0,0,0,0,0,0,0,0,0,0,0,0,0,0,0,0,0,0,0,0,0,0,0.1881,0.188,0,0.176,0.1759,0.1757,0.1687,0.1687,0.1687,0.1687,0.1517,0.1513,0.1508,0,0,0,0,0,0,0,0,0,0,0,0,0,0.1982,0.198,0.1881,0.188,0.1879,0.1761,0.1759,0.1757,0.1687,0.1687,0.1687,0.1688,0.1519,0.1513,0.1508,0,0,0,0,0,0,0,0,0,0,0,0,0,0.1903,0.198,0.1881,0.1833,0.1828,0.1761,0.1759,0.1756,0.1687,0.1687,0.1687,0.1688,0.1521,0.1514,0.1507,0.146,0,0,0.1486,0.1483,0,0,0,0,0,0,0,0,0.1908,0.1899,0.1842,0.1837,0.1831,0.1743,0.1732,0.1656,0.1687,0.1736,0.1687,0.1688,0.1591,0.1578,0.1549,0.1452,0.1444,0.1485,0.1481,0.1478,0.1476,0,0,0,0,0,0,0,0.1913,0.1903,0.1829,0.1841,0.1834,0.1794,0.1784,0.1717,0.1659,0.1732,0.1727,0.1721,0.1587,0.1556,0.1545,0.1442,0.1485,0.1479,0.1475,0.1472,0.1279,0.1278,0,0,0,0,0,0,0.1941,0.1909,0.1833,0.1826,0.1876,0.1793,0.1781,0.1767,0.1661,0.1647,0.1721,0.1718,0.1568,0.1553,0.1539,0.1468,0.1478,0.1471,0.1467,0.128,0.1279,0.1278,0,0,0,0,0,0,0.1943,0.1935,0.1838,0.1869,0.1854,0.1792,0.1777,0.1765,0.174,0.1654,0.1638,0.1711,0.1568,0.1548,0.1476,0.1461,0.1468,0.1462,0.1281,0.1279,0.1278,0.1331,0,0,0,0,0,0,0.1946,0.1936,0.1936,0.187,0.1854,0.1809,0.1777,0.1762,0.1738,0.1733,0.164,0.1624,0.1566,0.1487,0.1469,0.1451,0.1456,0.1282,0.128,0.1279,0.133,0.1331,0.1332,0,0,0,0,0,0.195,0.1941,0.1936,0.1927,0.1855,0.181,0.1797,0.1751,0.1738,0.1729,0.1659,0.1627,0.1463,0.148,0.146,0.144,0.1283,0.1281,0.1279,0.133,0.1331,0.1332,0,0,0,0,0,0,0.1968,0.1931,0.1925,0.1901,0.1871,0.18,0.1787,0.1759,0.1696,0.169,0.1611,0.1589,0.1522,0.1472,0.1494,0.1378,0.1369,0.1363,0.1415,0.1416,0.1417,0.1455,0.1451,0,0,0,0,0,0.198,0.1967,0.1929,0.1909,0.1904,0.1851,0.1829,0.1798,0.1737,0.1711,0.1646,0.157,0.1494,0.1452,0.1385,0.1318,0.1367,0.1293,0.1294,0.1295,0.1311,0.1366,0.1375,0.1271,0.1271,0.1271,0,0,0.1974,0.1957,0.1946,0.1914,0.1887,0.1863,0.1837,0.1807,0.1769,0.17,0.1632,0.1575,0.148,0.1406,0.1371,0.1363,0.1359,0.1292,0.1294,0.131,0.1365,0.1376,0.1386,0.1269,0.127,0.127,0,0,0.196,0.1956,0.1946,0.1935,0.1911,0.1875,0.1875,0.182,0.1784,0.1712,0.1655,0.1598,0.1475,0.1415,0.1362,0.1329,0.1369,0.1302,0.1329,0.1382,0.1392,0.1402,0.1534,0.1555,0.1296,0.1296,0.1297,0,0.1961,0.1944,0.1934,0.1931,0.1921,0.1887,0.1873,0.1825,0.1746,0.1724,0.1697,0.1558,0.1477,0.14,0.1377,0.1333,0.1406,0.1334,0.1389,0.1399,0.1408,0.1541,0.1563,0.1299,0.1298,0.1298,0.1298,0,0.1939,0.1939,0.1936,0.1922,0.1907,0.1892,0.1848,0.1822,0.1777,0.1731,0.1667,0.1572,0.1507,0.1454,0.139,0.1397,0.1448,0.1397,0.1401,0.1423,0.156,0.1583,0.1302,0.1301,0.13,0.13,0,0,0.19,0.1919,0.1919,0.1926,0.191,0.1888,0.1852,0.1809,0.1797,0.1722,0.1712,0.1567,0.1567,0.151,0.1449,0.146,0.1581,0.1457,0.1459,0.1618,0.1784,0.1875,0.1909,0.1555,0.1557,0.1559,0.1878,0,0.1887,0.1889,0.1898,0.1887,0.1884,0.1878,0.1849,0.1811,0.1775,0.176,0.1689,0.1652,0.1573,0.1564,0.1564,0.1569,0.1634,0.1505,0.1713,0.1721,0.1821,0.1934,0.181,0.2087,0.19,0.1904,0.1906,0,0.1858,0.1866,0.1867,0.1886,0.1888,0.1873,0.1862,0.1836,0.1817,0.1803,0.179,0.1765,0.1766,0.1699,0.1787,0.1721,0.1772,0.1782,0.1794,0.1873,0.1851,0.2018,0.2135,0.2001,0.1942,0.1939,0.1936,0,0.1821,0.1842,0.1843,0.185,0.1861,0.186,0.1857,0.1844,0.1844,0.1864,0.1899,0.1898,0.1933,0.1968,0.1997,0.192,0.2135,0.2032,0.2182,0.2193,0.2125,0.2125,0.2154,0.2139,0.2138,0.2138,0.2137,0,0.1797,0.1799,0.183,0.1831,0.1837,0.1851,0.1862,0.1866,0.1899,0.1934,0.1939,0.2,0.2002,0.2107,0.2107,0.2264,0.2253,0.2249,0.2284,0.2145,0.2142,0.2049,0.1971,0.215,0.2147,0.2145,0.2142,0,0.1757,0.1779,0.1784,0.1809,0.182,0.1821,0.1873,0.1884,0.1938,0.2005,0.2035,0.2131,0.2299,0.2344,0.2452,0.2449,0.2479,0.2599,0.2486,0.2501,0.2485,0.2414,0.2499,0.243,0.2837,0.2842,0.2845,0,0.1737,0.1736,0.1766,0.1774,0.1788,0.181,0.1826,0.1881,0.1917,0.2084,0.2125,0.2332,0.2434,0.2685,0.2746,0.2881,0.2683,0.2852,0.2645,0.2532,0.2478,0.2343,0.2263,0.2606,0.2607,0.2608,0.2609,0,0.1702,0.1715,0.1727,0.1742,0.1759,0.1794,0.1838,0.188,0.1979,0.207,0.2234,0.2343,0.2618,0.271,0.2924,0.2957,0.2685,0.2884,0.2751,0.2321,0.2187,0.2118,0.2405,0.2618,0.2617,0.2616,0.2616,0.2615,0.1677,0.1677,0.1694,0.1714,0.1736,0.1779,0.1785,0.1868,0.1957,0.2077,0.2242,0.2361,0.2548,0.2827,0.2879,0.2876,0.2835,0.2727,0.2676,0.257,0.2408,0.2786,0.3027,0.3028,0.3029,0.303,0.3031,0,0.1634,0.1647,0.1666,0.1682,0.169,0.1728,0.1786,0.1779,0.1865,0.202,0.214,0.2308,0.2424,0.2554,0.2673,0.2612,0.2448,0.2524,0.2211,0.2158,0.2484,0.237,0.2493,0.2493,0.2493,0.2493,0.2493,0.2493,0.1601,0.1609,0.1633,0.164,0.1652,0.1616,0.1636,0.1653,0.1718,0.1824,0.1911,0.2035,0.2217,0.2347,0.2319,0.2277,0.205,0.2023,0.201,0.2109,0.2118,0.2126,0.1996,0.2039,0.2039,0.1545,0.1541,0.1538]},{"header":{"parameterUnit":"m.s-1","parameterCategory":2,"la1":30.2991,"la2":30.254,"lo1":-89.0895,"lo2":-89.0444,"dy":0.0017,"dx":0.0017,"nx":28,"ny":28,"refTime":"2024-02-24T09:00:00:Z","depth":"0","parameterNumber":3,"parameterNumberName":"V-component_of_CURRENTS"},"data":[0,0,0,0,0,0,0,0,0,0,0,0,0,0,0,0,0,0,0,0,0,0,0,0,0,0,0,0,0,0,0,0,0,0,0,0,0,0,0,0,0,0,0,0,0,0,0,0,0,0,0,0,0,0,0,0,0,0,-0.0744,-0.0745,0,-0.0865,-0.0866,-0.0868,-0.0945,-0.0945,-0.0945,-0.0945,-0.1067,-0.107,-0.1074,0,0,0,0,0,0,0,0,0,0,0,0,0,-0.0634,-0.0635,-0.0744,-0.0745,-0.0747,-0.0865,-0.0867,-0.0869,-0.0945,-0.0945,-0.0945,-0.0945,-0.1066,-0.107,-0.1074,0,0,0,0,0,0,0,0,0,0,0,0,0,-0.0714,-0.0636,-0.0744,-0.0796,-0.0802,-0.0864,-0.0867,-0.0869,-0.0945,-0.0945,-0.0945,-0.0945,-0.1065,-0.107,-0.1074,-0.1099,0,0,-0.1089,-0.1091,0,0,0,0,0,0,0,0,-0.0709,-0.0718,-0.0788,-0.0793,-0.0799,-0.0887,-0.0872,-0.0945,-0.0945,-0.0894,-0.0945,-0.0945,-0.1005,-0.1015,-0.1041,-0.1105,-0.111,-0.1089,-0.1092,-0.1094,-0.1095,0,0,0,0,0,0,0,-0.0703,-0.0714,-0.0795,-0.0789,-0.0796,-0.0832,-0.0844,-0.0887,-0.0949,-0.0899,-0.0904,-0.0912,-0.1009,-0.1037,-0.1045,-0.1112,-0.1089,-0.1093,-0.1096,-0.1098,-0.1226,-0.1227,0,0,0,0,0,0,-0.0679,-0.0708,-0.0792,-0.0799,-0.075,-0.0833,-0.0846,-0.0861,-0.0949,-0.0962,-0.0911,-0.0915,-0.1029,-0.1039,-0.1049,-0.1101,-0.1094,-0.1098,-0.1101,-0.1225,-0.1226,-0.1227,0,0,0,0,0,0,-0.0676,-0.0685,-0.0787,-0.0753,-0.0768,-0.0834,-0.0851,-0.0864,-0.089,-0.0958,-0.0972,-0.0924,-0.1029,-0.1043,-0.1104,-0.1105,-0.11,-0.1105,-0.1225,-0.1226,-0.1227,-0.1192,0,0,0,0,0,0,-0.0673,-0.0684,-0.0678,-0.0751,-0.0769,-0.0811,-0.0851,-0.0866,-0.0893,-0.0899,-0.0973,-0.0985,-0.1031,-0.1097,-0.1108,-0.1112,-0.1108,-0.1224,-0.1225,-0.1226,-0.1193,-0.1192,-0.1191,0,0,0,0,0,-0.0668,-0.066,-0.0677,-0.0687,-0.0762,-0.081,-0.0822,-0.0873,-0.0893,-0.0899,-0.0967,-0.0983,-0.1111,-0.1102,-0.1115,-0.1119,-0.1223,-0.1225,-0.1226,-0.1193,-0.1192,-0.1191,0,0,0,0,0,0,-0.0617,-0.0669,-0.0689,-0.07,-0.0743,-0.0821,-0.0828,-0.0866,-0.0925,-0.0931,-0.1,-0.1017,-0.1071,-0.11,-0.1087,-0.116,-0.1166,-0.117,-0.1136,-0.1136,-0.1135,-0.1081,-0.1112,0,0,0,0,0,-0.0599,-0.0604,-0.0665,-0.0673,-0.069,-0.0757,-0.078,-0.0817,-0.088,-0.0906,-0.0964,-0.1026,-0.1087,-0.1114,-0.1168,-0.1208,-0.1185,-0.1217,-0.1216,-0.1215,-0.1181,-0.1174,-0.1168,-0.1231,-0.1231,-0.1231,0,0,-0.058,-0.0609,-0.0612,-0.066,-0.07,-0.0729,-0.0773,-0.0803,-0.0835,-0.0909,-0.0966,-0.1026,-0.1099,-0.1154,-0.1177,-0.1177,-0.1183,-0.1217,-0.1216,-0.1181,-0.1174,-0.1168,-0.1162,-0.1232,-0.1232,-0.1232,0,0,-0.0558,-0.0572,-0.0576,-0.0603,-0.0649,-0.0695,-0.0699,-0.0774,-0.0809,-0.087,-0.0939,-0.0994,-0.1083,-0.1138,-0.1177,-0.1199,-0.1183,-0.1219,-0.1169,-0.1163,-0.1157,-0.1151,-0.1092,-0.1081,-0.1214,-0.1214,-0.1214,0,-0.0539,-0.0553,-0.0583,-0.0597,-0.0614,-0.0677,-0.0693,-0.074,-0.0828,-0.0846,-0.0876,-0.1001,-0.1071,-0.1131,-0.1152,-0.1194,-0.1167,-0.1168,-0.1158,-0.1152,-0.1147,-0.1088,-0.1077,-0.1213,-0.1213,-0.1213,-0.1213,0,-0.0527,-0.0535,-0.0537,-0.0576,-0.0596,-0.0616,-0.0677,-0.0704,-0.0752,-0.08,-0.0857,-0.0954,-0.1012,-0.106,-0.1121,-0.1128,-0.1112,-0.116,-0.1151,-0.1137,-0.1078,-0.1066,-0.1211,-0.1211,-0.1212,-0.1212,0,0,-0.0514,-0.0527,-0.0531,-0.0533,-0.0583,-0.0601,-0.0633,-0.0679,-0.0679,-0.0762,-0.076,-0.0896,-0.092,-0.0965,-0.1042,-0.1053,-0.1012,-0.1083,-0.1084,-0.1005,-0.0946,-0.0881,-0.0863,-0.1057,-0.1055,-0.1054,-0.0911,0,-0.0507,-0.051,-0.0524,-0.0532,-0.0541,-0.0575,-0.0595,-0.0632,-0.0666,-0.0674,-0.0755,-0.0789,-0.0894,-0.0909,-0.0941,-0.1,-0.0982,-0.1042,-0.0986,-0.0982,-0.0912,-0.0848,-0.0822,-0.0687,-0.0899,-0.0897,-0.0896,0,-0.0499,-0.0503,-0.05,-0.0497,-0.0502,-0.051,-0.0513,-0.0538,-0.0559,-0.0571,-0.0599,-0.0648,-0.0692,-0.0769,-0.0815,-0.0845,-0.0875,-0.0913,-0.0909,-0.0845,-0.0897,-0.0742,-0.0659,-0.0812,-0.0878,-0.088,-0.0881,0,-0.0471,-0.0484,-0.0475,-0.0477,-0.0491,-0.048,-0.0489,-0.0502,-0.0488,-0.0482,-0.0436,-0.0511,-0.0499,-0.0578,-0.066,-0.0729,-0.0665,-0.0775,-0.0729,-0.0723,-0.0683,-0.0676,-0.0722,-0.076,-0.076,-0.0761,-0.0761,0,-0.0453,-0.0443,-0.0454,-0.0444,-0.0419,-0.0439,-0.0396,-0.0401,-0.037,-0.0297,-0.037,-0.0296,-0.0447,-0.0441,-0.0561,-0.057,-0.0579,-0.067,-0.0675,-0.0669,-0.0664,-0.0783,-0.0869,-0.0755,-0.0757,-0.0758,-0.0758,0,-0.0406,-0.0422,-0.0401,-0.0403,-0.0399,-0.0373,-0.0324,-0.0274,-0.0254,-0.0142,-0.012,-0.0104,-0.008,-0.02,-0.0275,-0.0392,-0.0492,-0.0448,-0.0397,-0.0399,-0.0545,-0.0627,-0.057,-0.0615,-0.0383,-0.038,-0.0378,0,-0.0374,-0.0364,-0.0353,-0.0322,-0.0313,-0.0277,-0.0232,-0.0218,-0.0138,-0.0005,0.0081,0.0149,0.0225,0.0159,-0.0016,-0.0138,-0.0322,-0.0209,-0.0362,-0.0495,-0.0594,-0.0652,-0.0701,-0.0287,-0.0284,-0.0282,-0.028,0,-0.0304,-0.0303,-0.0279,-0.0217,-0.0168,-0.0109,-0.0032,0.0051,0.0122,0.0245,0.0433,0.0505,0.0467,0.0387,0.0225,0.0087,-0.0291,-0.0166,-0.0336,-0.0518,-0.0549,-0.0614,-0.0413,-0.026,-0.0262,-0.0264,-0.0265,-0.0266,-0.0232,-0.0196,-0.0154,-0.0081,-0.0016,0.0105,0.0203,0.0312,0.0481,0.0696,0.0716,0.0863,0.0679,0.0468,0.0282,-0.0075,-0.0106,-0.0244,-0.0323,-0.0362,-0.0437,-0.015,0.0,-0.0,-0.0001,-0.0001,-0.0001,0,-0.013,-0.0084,-0.001,0.0103,0.0236,0.0221,0.038,0.0499,0.0749,0.0896,0.1054,0.1056,0.0829,0.0502,0.0058,-0.0211,-0.0357,-0.0382,-0.0516,-0.0558,-0.0327,-0.0363,-0.0246,-0.0246,-0.0246,-0.0245,-0.0245,-0.0245,-0.0068,0.0031,0.0075,0.0325,0.0418,0.0596,0.0704,0.0856,0.0977,0.1196,0.1278,0.1304,0.1051,0.0253,-0.0347,-0.0493,-0.0713,-0.0691,-0.0817,-0.0754,-0.0751,-0.0748,-0.0806,-0.0783,-0.0784,-0.1033,-0.1035,-0.1037]}],[{"header":{"parameterUnit":"m.s-1","parameterCategory":2,"la1":30.2991,"la2":30.254,"lo1":-89.0895,"lo2":-89.0444,"dy":0.0017,"dx":0.0017,"nx":28,"ny":28,"refTime":"2024-02-24T09:00:00:Z","depth":"2","parameterNumber":2,"parameterNumberName":"U-component_of_CURRENTS"},"data":[0,0,0,0,0,0,0,0,0,0,0,0,0,0,0,0,0,0,0,0,0,0,0,0,0,0,0,0,0,0,0,0,0,0,0,0,0,0,0,0,0,0,0,0,0,0,0,0,0,0,0,0,0,0,0,0,0,0,0.2362,0.2364,0,0.2497,0.2497,0.2497,0.255,0.2551,0.2552,0.2553,0.2615,0.2616,0.2616,0,0,0,0,0,0,0,0,0,0,0,0,0,0.2224,0.2225,0.2361,0.2365,0.2368,0.2497,0.2497,0.2497,0.255,0.2551,0.2553,0.2554,0.2615,0.2616,0.2617,0,0,0,0,0,0,0,0,0,0,0,0,0,0.2299,0.2225,0.2361,0.2421,0.2429,0.2497,0.2497,0.2498,0.255,0.2551,0.2553,0.2554,0.2615,0.2616,0.2617,0.259,0,0,0.262,0.262,0,0,0,0,0,0,0,0,0.2294,0.2302,0.2409,0.2417,0.2426,0.2522,0.2473,0.253,0.2549,0.2487,0.2553,0.2555,0.2586,0.259,0.259,0.2593,0.2596,0.262,0.262,0.2621,0.2621,0,0,0,0,0,0,0,0.2289,0.2297,0.2399,0.2413,0.2423,0.2469,0.2478,0.2483,0.2512,0.2493,0.2501,0.254,0.2589,0.2589,0.2592,0.2597,0.262,0.262,0.2621,0.2621,0.2629,0.2629,0,0,0,0,0,0,0.2298,0.2291,0.2395,0.2405,0.2381,0.2471,0.2481,0.2477,0.2514,0.2527,0.2539,0.2543,0.2587,0.2591,0.2595,0.2625,0.2621,0.2622,0.2622,0.263,0.2629,0.2629,0,0,0,0,0,0,0.2294,0.2304,0.239,0.2367,0.2383,0.2472,0.2467,0.2479,0.2524,0.2553,0.2561,0.2579,0.2588,0.2593,0.2641,0.2626,0.2622,0.2623,0.263,0.263,0.2629,0.2648,0,0,0,0,0,0,0.2288,0.23,0.2332,0.2365,0.2385,0.2426,0.2467,0.2481,0.2551,0.2558,0.2589,0.2594,0.259,0.264,0.2642,0.2627,0.2624,0.2631,0.263,0.2629,0.2648,0.2648,0.2648,0,0,0,0,0,0.2282,0.2326,0.2331,0.2347,0.2412,0.2427,0.2437,0.2499,0.2552,0.2548,0.2604,0.2596,0.2635,0.2642,0.2644,0.2629,0.2631,0.263,0.2629,0.2648,0.2648,0.2648,0,0,0,0,0,0,0.2285,0.2338,0.2344,0.24,0.2408,0.2442,0.2493,0.2521,0.2561,0.2603,0.2614,0.2621,0.2651,0.2641,0.2648,0.2626,0.2621,0.2621,0.2634,0.2635,0.2635,0.2575,0.2624,0,0,0,0,0,0.2298,0.2328,0.2361,0.2392,0.2417,0.2454,0.2491,0.2519,0.2559,0.2582,0.2603,0.2629,0.2638,0.2645,0.2651,0.2651,0.2656,0.2634,0.2634,0.2634,0.2585,0.259,0.2586,0.2626,0.2626,0.2626,0,0,0.2309,0.2342,0.2363,0.2395,0.2422,0.2446,0.2476,0.2534,0.2547,0.2581,0.2626,0.2645,0.2645,0.2647,0.2654,0.2643,0.2643,0.2633,0.2634,0.2583,0.2589,0.2585,0.2581,0.2626,0.2626,0.2626,0,0,0.23,0.2369,0.2372,0.2405,0.2462,0.2484,0.2506,0.255,0.2568,0.2598,0.2634,0.2645,0.2661,0.2643,0.2639,0.264,0.2656,0.2648,0.2588,0.2596,0.2593,0.2589,0.2669,0.2672,0.2634,0.2634,0.2634,0,0.2313,0.233,0.2373,0.2393,0.2452,0.2502,0.2525,0.254,0.2587,0.2583,0.2613,0.2624,0.2639,0.2618,0.2611,0.2637,0.2672,0.2596,0.2597,0.2593,0.2589,0.2671,0.2674,0.2635,0.2635,0.2634,0.2634,0,0.2305,0.2341,0.2363,0.2396,0.2438,0.2491,0.2527,0.2543,0.2587,0.2582,0.258,0.2596,0.2581,0.2591,0.2598,0.2568,0.262,0.2614,0.2598,0.2586,0.2675,0.2678,0.2636,0.2636,0.2635,0.2635,0,0,0.2283,0.234,0.2364,0.2371,0.2477,0.2492,0.2524,0.2527,0.2537,0.2541,0.2526,0.2514,0.2511,0.2503,0.2521,0.2506,0.2547,0.2537,0.2537,0.262,0.2625,0.2553,0.255,0.2552,0.2551,0.255,0.2728,0,0.2266,0.2286,0.235,0.2389,0.24,0.2486,0.2501,0.2515,0.2527,0.252,0.2496,0.2503,0.2485,0.2501,0.2473,0.2545,0.2541,0.2501,0.2616,0.262,0.2558,0.2544,0.2314,0.2439,0.2731,0.2731,0.2732,0,0.2236,0.2263,0.2285,0.2349,0.2376,0.2419,0.2473,0.249,0.2482,0.2488,0.2455,0.2466,0.2456,0.2446,0.2496,0.2483,0.2523,0.2562,0.2571,0.2473,0.2547,0.248,0.2434,0.2737,0.2736,0.2736,0.2736,0,0.2136,0.2223,0.2237,0.2281,0.2355,0.2384,0.2442,0.2461,0.2468,0.2468,0.2478,0.2463,0.2492,0.2504,0.2573,0.255,0.2649,0.2644,0.2614,0.2616,0.2415,0.2398,0.263,0.263,0.263,0.2629,0.2629,0,0.2071,0.2095,0.2199,0.2207,0.2268,0.2333,0.2367,0.2409,0.2436,0.2439,0.2454,0.2466,0.2499,0.2559,0.2595,0.2628,0.2677,0.258,0.2622,0.2425,0.2407,0.2635,0.2633,0.2636,0.2634,0.2633,0.2632,0,0.1917,0.1986,0.2011,0.2133,0.2193,0.2228,0.2361,0.2359,0.2412,0.2423,0.2431,0.2492,0.2576,0.2633,0.2713,0.2672,0.2717,0.2712,0.2513,0.2521,0.2686,0.2683,0.2688,0.2686,0.2684,0.2683,0.2682,0,0.1832,0.1813,0.1966,0.2018,0.2088,0.2171,0.2225,0.2323,0.2328,0.2432,0.2427,0.2528,0.2541,0.2659,0.2631,0.2682,0.2741,0.2485,0.2328,0.2633,0.2676,0.2676,0.2675,0.2138,0.2133,0.2128,0.2125,0,0.1689,0.175,0.1801,0.1895,0.1982,0.2072,0.2163,0.217,0.2261,0.2282,0.2339,0.2373,0.2468,0.2383,0.2439,0.243,0.2449,0.2391,0.2757,0.2133,0.212,0.2161,0.2177,0.2085,0.2089,0.2092,0.2094,0.2096,0.1631,0.1646,0.171,0.1796,0.1882,0.1943,0.1954,0.2025,0.2035,0.2038,0.2173,0.2151,0.218,0.2112,0.2093,0.2082,0.2229,0.2116,0.2127,0.2144,0.2021,0.2002,0.1929,0.1932,0.1935,0.1937,0.1939,0,0.1519,0.1557,0.1619,0.1697,0.1708,0.1818,0.1879,0.1838,0.18,0.1863,0.1869,0.1716,0.1662,0.1744,0.1641,0.1639,0.1607,0.1592,0.1525,0.1565,0.1601,0.1447,0.1206,0.1204,0.1202,0.12,0,0,0.1472,0.1469,0.1495,0.1498,0.1553,0.1542,0.1554,0.1527,0.1536,0.1475,0.145,0.1537,0.1639,0.1375,0.1357,0.127,0.1407,0.1222,0.1806,0.1765,0.1798,0.1897,0.1705,0,0,0,0,0]},{"header":{"parameterUnit":"m.s-1","parameterCategory":2,"la1":30.2991,"la2":30.254,"lo1":-89.0895,"lo2":-89.0444,"dy":0.0017,"dx":0.0017,"nx":28,"ny":28,"refTime":"2024-02-24T09:00:00:Z","depth":"2","parameterNumber":3,"parameterNumberName":"V-component_of_CURRENTS"},"data":[0,0,0,0,0,0,0,0,0,0,0,0,0,0,0,0,0,0,0,0,0,0,0,0,0,0,0,0,0,0,0,0,0,0,0,0,0,0,0,0,0,0,0,0,0,0,0,0,0,0,0,0,0,0,0,0,0,0,0.0416,0.0415,0,0.0391,0.0391,0.0391,0.0349,0.0348,0.0347,0.0346,0.0195,0.0192,0.019,0,0,0,0,0,0,0,0,0,0,0,0,0,0.0428,0.0429,0.0416,0.0415,0.0415,0.0391,0.0391,0.0391,0.0349,0.0348,0.0346,0.0345,0.0196,0.0193,0.0189,0,0,0,0,0,0,0,0,0,0,0,0,0,0.0419,0.0429,0.0416,0.0388,0.0385,0.0391,0.0391,0.0391,0.0349,0.0348,0.0346,0.0344,0.0197,0.0193,0.0189,0.0195,0,0,0.0175,0.0173,0,0,0,0,0,0,0,0,0.0419,0.0419,0.0393,0.039,0.0387,0.0368,0.034,0.0318,0.035,0.0367,0.0346,0.0344,0.024,0.0233,0.0238,0.0188,0.0181,0.0175,0.0172,0.017,0.0169,0,0,0,0,0,0,0,0.042,0.0419,0.041,0.0392,0.0389,0.0377,0.0375,0.0337,0.0314,0.0365,0.0361,0.0353,0.0238,0.0243,0.0234,0.0179,0.0175,0.0171,0.0168,0.0167,0.0055,0.0055,0,0,0,0,0,0,0.0418,0.042,0.0411,0.0409,0.0395,0.0378,0.0375,0.0379,0.0317,0.0306,0.0355,0.0351,0.0251,0.0239,0.0228,0.018,0.017,0.0166,0.0164,0.0056,0.0055,0.0055,0,0,0,0,0,0,0.0419,0.0418,0.0411,0.041,0.0408,0.0379,0.0384,0.0379,0.0367,0.031,0.0296,0.0345,0.025,0.0235,0.0183,0.0175,0.0164,0.016,0.0056,0.0055,0.0055,0.0115,0,0,0,0,0,0,0.0419,0.0419,0.0417,0.0411,0.0408,0.0414,0.0385,0.038,0.0364,0.0359,0.0297,0.0283,0.0247,0.019,0.0178,0.0169,0.0157,0.0056,0.0056,0.0055,0.0113,0.0116,0.0119,0,0,0,0,0,0.042,0.0422,0.0418,0.0416,0.0409,0.0414,0.0412,0.0388,0.0365,0.0369,0.0319,0.0284,0.0178,0.0186,0.0173,0.0162,0.0057,0.0056,0.0055,0.0112,0.0116,0.0119,0,0,0,0,0,0,0.0425,0.0417,0.0413,0.0412,0.0413,0.0405,0.0397,0.0386,0.0356,0.0336,0.0283,0.0266,0.0217,0.0182,0.0193,0.0127,0.011,0.0107,0.0157,0.016,0.0163,0.0159,0.0153,0,0,0,0,0,0.0428,0.0426,0.0424,0.0424,0.0422,0.0412,0.0406,0.0395,0.0368,0.0353,0.0307,0.0253,0.021,0.0179,0.0138,0.0104,0.0069,0.0086,0.0089,0.0092,0.0079,0.002,0.0017,0.0053,0.0053,0.0053,0,0,0.043,0.0423,0.0423,0.0424,0.0419,0.0421,0.0405,0.0397,0.0391,0.0338,0.0301,0.0261,0.0204,0.0167,0.0141,0.0132,0.007,0.0091,0.0094,0.0079,0.0019,0.0015,0.0012,0.0052,0.0052,0.0052,0,0,0.0442,0.0429,0.0438,0.0435,0.0427,0.0419,0.0416,0.0405,0.0389,0.036,0.0318,0.0275,0.0207,0.0174,0.0146,0.0139,0.009,0.012,0.0129,0.0073,0.007,0.0066,0.0052,0.0047,0.0121,0.0121,0.0121,0,0.0448,0.0453,0.0442,0.0446,0.0437,0.0418,0.0424,0.0413,0.0384,0.0366,0.0345,0.0251,0.0211,0.0164,0.0163,0.0146,0.0114,0.0125,0.0078,0.0073,0.0068,0.0055,0.0048,0.0123,0.0123,0.0123,0.0123,0,0.047,0.0467,0.0467,0.0464,0.0457,0.0456,0.0439,0.042,0.0389,0.0374,0.032,0.0272,0.0212,0.02,0.0176,0.0127,0.0118,0.0093,0.0073,0.0069,0.0055,0.0047,0.0127,0.0126,0.0126,0.0125,0,0,0.0501,0.0489,0.0486,0.0489,0.0462,0.0466,0.0438,0.0421,0.04,0.0361,0.0332,0.0269,0.024,0.0206,0.0174,0.0129,0.0091,0.0096,0.0092,0.0091,-0.0012,-0.0006,-0.0014,0.005,0.0048,0.0046,0.0005,0,0.0523,0.0537,0.0516,0.052,0.0526,0.0485,0.0465,0.0439,0.0402,0.037,0.0317,0.0276,0.0244,0.0217,0.0167,0.012,0.0065,0.0106,-0.0016,-0.0019,-0.0008,-0.0026,-0.0007,-0.0044,-0.0003,-0.0004,-0.0005,0,0.0552,0.0553,0.0564,0.0548,0.0546,0.0538,0.0492,0.0471,0.0415,0.0385,0.0327,0.0288,0.0239,0.0198,0.0098,0.0123,0.0045,-0.0,-0.0004,-0.0033,-0.0031,-0.0042,-0.006,-0.0019,-0.0018,-0.0017,-0.0016,0,0.0583,0.0586,0.0593,0.0587,0.0565,0.0551,0.0527,0.0472,0.0461,0.0391,0.0382,0.03,0.0277,0.0167,0.0098,0.0079,-0.0011,-0.0047,-0.012,-0.0118,-0.0145,-0.0143,-0.0169,-0.0169,-0.0169,-0.0169,-0.0168,0,0.0604,0.0612,0.0612,0.061,0.062,0.0582,0.0568,0.0528,0.0482,0.0488,0.0396,0.0398,0.0258,0.0206,0.0106,0.0001,-0.0006,-0.0128,-0.0143,-0.0119,-0.0115,-0.0138,-0.0134,-0.017,-0.017,-0.0169,-0.0169,0,0.0624,0.0623,0.0643,0.0633,0.0635,0.0635,0.0616,0.0602,0.0553,0.0557,0.0543,0.0475,0.0403,0.0281,0.0133,0.0032,-0.0081,-0.0134,-0.0069,-0.0077,-0.0158,-0.015,-0.0237,-0.0237,-0.0238,-0.0238,-0.0238,0,0.0629,0.0642,0.0668,0.0683,0.0677,0.0678,0.0673,0.0635,0.0638,0.0629,0.0649,0.0576,0.054,0.0348,0.0154,-0.0031,-0.0067,-0.0151,-0.0209,-0.0166,-0.0172,-0.0163,-0.0156,-0.0203,-0.0203,-0.0203,-0.0203,0,0.064,0.0656,0.0671,0.0709,0.0725,0.0746,0.0751,0.078,0.0754,0.0769,0.0796,0.0765,0.0579,0.0394,0.0134,0.0011,-0.0117,-0.0159,-0.0147,-0.0185,-0.0137,-0.0141,-0.0134,-0.0202,-0.0202,-0.0202,-0.0202,-0.0202,0.065,0.0672,0.0701,0.0734,0.0759,0.0802,0.0825,0.0853,0.0888,0.0896,0.0901,0.0839,0.0633,0.0281,0.0097,-0.0113,-0.0132,-0.0228,-0.0227,-0.0227,-0.0212,-0.0168,-0.0234,-0.0234,-0.0234,-0.0234,-0.0234,0,0.0652,0.068,0.0718,0.0763,0.0787,0.0806,0.0863,0.0878,0.0935,0.0948,0.0941,0.0752,0.0541,0.0322,0.0004,-0.0192,-0.0208,-0.0245,-0.0227,-0.0226,-0.0226,-0.0211,-0.0232,-0.0232,-0.0233,-0.0233,0,0,0.0653,0.069,0.0713,0.0767,0.0798,0.0844,0.0882,0.0918,0.0937,0.0934,0.0896,0.0809,0.0574,0.0342,0.0098,-0.0066,-0.0105,-0.0098,-0.0083,-0.0033,-0.003,-0.0201,-0.0175,0,0,0,0,0]}],[{"header":{"parameterUnit":"m.s-1","parameterCategory":2,"la1":30.2991,"la2":30.254,"lo1":-89.0895,"lo2":-89.0444,"dy":0.0017,"dx":0.0017,"nx":28,"ny":28,"refTime":"2024-02-24T09:00:00:Z","depth":"4","parameterNumber":2,"parameterNumberName":"U-component_of_CURRENTS"},"data":[0,0,0,0,0,0,0,0,0,0,0,0,0,0,0,0,0,0,0,0,0,0,0,0,0,0,0,0,0,0,0,0,0,0,0,0,0,0,0,0,0,0,0,0,0,0,0,0,0,0,0,0,0,0,0,0,0,0,0.0771,0.0771,0,0.0798,0.0798,0.0799,0.0838,0.0838,0.0839,0.0839,0.0849,0.0849,0.0848,0,0,0,0,0,0,0,0,0,0,0,0,0,0.0746,0.0746,0.0771,0.0771,0.0772,0.0798,0.0798,0.0799,0.0838,0.0838,0.0839,0.0839,0.0849,0.0849,0.0848,0,0,0,0,0,0,0,0,0,0,0,0,0,0.0765,0.0747,0.0771,0.0793,0.0795,0.0797,0.0798,0.0799,0.0838,0.0838,0.0839,0.084,0.0849,0.0849,0.0848,0.0831,0,0,0.0847,0.0847,0,0,0,0,0,0,0,0,0.0764,0.0766,0.0789,0.0791,0.0793,0.0813,0.0793,0.0808,0.0837,0.0823,0.0839,0.084,0.0833,0.0834,0.0841,0.0832,0.0832,0.0847,0.0847,0.0847,0.0847,0,0,0,0,0,0,0,0.0762,0.0765,0.0784,0.0789,0.0792,0.0798,0.0802,0.0796,0.0825,0.0825,0.0827,0.0827,0.0835,0.0841,0.0841,0.0832,0.0847,0.0847,0.0847,0.0847,0.0858,0.0859,0,0,0,0,0,0,0.0755,0.0764,0.0783,0.0784,0.0778,0.0797,0.0802,0.0808,0.0826,0.0829,0.0826,0.0828,0.0841,0.0842,0.0842,0.089,0.0847,0.0847,0.0846,0.0858,0.0859,0.0859,0,0,0,0,0,0,0.0754,0.0757,0.0782,0.0773,0.0776,0.0797,0.0803,0.0808,0.084,0.0826,0.083,0.0856,0.0842,0.0842,0.0861,0.0888,0.0847,0.0846,0.0857,0.0858,0.0859,0.0942,0,0,0,0,0,0,0.0754,0.0756,0.0769,0.0772,0.0776,0.0799,0.0803,0.0808,0.0836,0.084,0.0853,0.0853,0.0843,0.0862,0.0861,0.0886,0.0846,0.0857,0.0858,0.0859,0.0939,0.0945,0.0951,0,0,0,0,0,0.0753,0.076,0.077,0.0772,0.079,0.08,0.0803,0.0821,0.0837,0.0854,0.0865,0.0854,0.0866,0.0862,0.0861,0.0887,0.0856,0.0857,0.0859,0.0936,0.0944,0.0951,0,0,0,0,0,0,0.0754,0.0764,0.0775,0.0786,0.0801,0.0806,0.0821,0.0836,0.0859,0.087,0.0864,0.0865,0.0902,0.0872,0.0867,0.089,0.0858,0.0859,0.0917,0.0924,0.0931,0.0938,0.0846,0,0,0,0,0,0.0759,0.0778,0.0781,0.0798,0.0802,0.0819,0.0831,0.0845,0.0858,0.0871,0.0892,0.0896,0.0899,0.0895,0.0906,0.0907,0.0906,0.0919,0.0926,0.0931,0.0935,0.1013,0.1029,0.0863,0.0863,0.0863,0,0,0.0763,0.0776,0.0784,0.0802,0.0815,0.0818,0.083,0.0854,0.0872,0.0865,0.0918,0.0937,0.0911,0.0933,0.0941,0.0911,0.0963,0.0933,0.0938,0.0938,0.1016,0.1033,0.1048,0.0864,0.0863,0.0863,0,0,0.0776,0.0793,0.0808,0.0819,0.0842,0.084,0.0853,0.0883,0.0914,0.0948,0.096,0.1001,0.0996,0.1003,0.0992,0.1032,0.1015,0.1023,0.1043,0.112,0.1135,0.1149,0.1114,0.1124,0.1004,0.1004,0.1004,0,0.0781,0.0796,0.0814,0.0829,0.0835,0.0851,0.0858,0.0882,0.0927,0.0967,0.0972,0.1033,0.103,0.1049,0.1061,0.1052,0.1054,0.102,0.1133,0.1147,0.1159,0.1121,0.1131,0.1008,0.1008,0.1007,0.1007,0,0.0794,0.0811,0.082,0.0838,0.0851,0.0861,0.0881,0.0928,0.0966,0.1003,0.1081,0.1095,0.1133,0.1131,0.11,0.1175,0.1131,0.1157,0.1123,0.1182,0.1135,0.1145,0.1014,0.1013,0.1011,0.101,0,0,0.0777,0.0818,0.0819,0.0842,0.0856,0.0871,0.0904,0.0946,0.0989,0.106,0.1123,0.116,0.1212,0.1202,0.1199,0.1236,0.1312,0.1225,0.1227,0.1203,0.1408,0.1304,0.1303,0.1375,0.1378,0.1381,0.1321,0,0.0776,0.0802,0.0818,0.0844,0.0854,0.0886,0.0912,0.0967,0.1018,0.1091,0.1148,0.1214,0.122,0.1251,0.1303,0.1308,0.1348,0.132,0.1342,0.134,0.1256,0.1317,0.1392,0.1327,0.1329,0.1331,0.1332,0,0.0775,0.079,0.0813,0.0863,0.087,0.089,0.095,0.0984,0.1075,0.1124,0.1214,0.1269,0.1329,0.1347,0.1411,0.1394,0.1421,0.1421,0.1421,0.1307,0.1257,0.1267,0.1348,0.1347,0.1345,0.1344,0.1343,0,0.0762,0.0794,0.0816,0.0829,0.0872,0.0912,0.0941,0.1016,0.1066,0.1172,0.1226,0.1312,0.1375,0.1428,0.1448,0.1449,0.1497,0.1504,0.1429,0.1417,0.149,0.1477,0.1607,0.1607,0.1607,0.1607,0.1607,0,0.075,0.0774,0.0822,0.0837,0.0869,0.092,0.0976,0.1023,0.1106,0.117,0.1267,0.1316,0.1422,0.1463,0.1459,0.1443,0.1527,0.1436,0.1423,0.1513,0.1504,0.1492,0.148,0.1605,0.1605,0.1606,0.1606,0,0.074,0.0769,0.0803,0.0852,0.087,0.0906,0.0984,0.1028,0.1114,0.1196,0.1246,0.1355,0.1398,0.144,0.1498,0.1462,0.1446,0.1441,0.1458,0.1446,0.1292,0.1284,0.1321,0.1318,0.1315,0.1312,0.131,0,0.0731,0.0747,0.0803,0.0821,0.0848,0.0904,0.0934,0.1021,0.1066,0.1198,0.1227,0.1335,0.1393,0.1342,0.1397,0.1364,0.1389,0.1346,0.1391,0.1293,0.1277,0.1274,0.127,0.1306,0.1305,0.1304,0.1303,0,0.0695,0.073,0.0749,0.0784,0.0824,0.0855,0.0915,0.094,0.1047,0.1148,0.1201,0.124,0.1283,0.1291,0.1296,0.1279,0.1338,0.1315,0.1322,0.1364,0.1274,0.1261,0.1261,0.1293,0.1294,0.1295,0.1296,0,0.0663,0.0663,0.0697,0.0727,0.0772,0.0787,0.0825,0.0879,0.0932,0.1088,0.1095,0.1181,0.1276,0.1246,0.1226,0.1214,0.1213,0.118,0.1194,0.1206,0.1202,0.1073,0.1027,0,0,0,0,0,0.0624,0.0617,0.0634,0.0664,0.0717,0.0743,0.0799,0.0844,0.0953,0.0972,0.1038,0.1072,0.1094,0.1118,0.1084,0.1156,0.1196,0.1109,0.116,0.1236,0.1248,0.1257,0,0,0,0,0,0,0.0589,0.06,0.0603,0.0608,0.0633,0.0672,0.0702,0.0774,0.0782,0.0906,0.0915,0.1022,0.104,0.1121,0.1077,0.1083,0.1093,0.1164,0.1161,0.1229,0.124,0.1249,0.1263,0,0,0,0,0]},{"header":{"parameterUnit":"m.s-1","parameterCategory":2,"la1":30.2991,"la2":30.254,"lo1":-89.0895,"lo2":-89.0444,"dy":0.0017,"dx":0.0017,"nx":28,"ny":28,"refTime":"2024-02-24T09:00:00:Z","depth":"4","parameterNumber":3,"parameterNumberName":"V-component_of_CURRENTS"},"data":[0,0,0,0,0,0,0,0,0,0,0,0,0,0,0,0,0,0,0,0,0,0,0,0,0,0,0,0,0,0,0,0,0,0,0,0,0,0,0,0,0,0,0,0,0,0,0,0,0,0,0,0,0,0,0,0,0,0,0.0306,0.0306,0,0.0298,0.0298,0.0298,0.0308,0.0309,0.0309,0.0309,0.0283,0.0282,0.0281,0,0,0,0,0,0,0,0,0,0,0,0,0,0.0303,0.0303,0.0306,0.0306,0.0306,0.0298,0.0298,0.0298,0.0308,0.0309,0.0309,0.0309,0.0283,0.0282,0.0281,0,0,0,0,0,0,0,0,0,0,0,0,0,0.0301,0.0303,0.0306,0.031,0.031,0.0298,0.0298,0.0298,0.0308,0.0309,0.0309,0.031,0.0284,0.0282,0.0281,0.0258,0,0,0.0276,0.0275,0,0,0,0,0,0,0,0,0.0301,0.0301,0.031,0.031,0.031,0.0305,0.0288,0.0284,0.0308,0.0308,0.0309,0.031,0.0288,0.0287,0.0283,0.0257,0.0256,0.0276,0.0275,0.0274,0.0273,0,0,0,0,0,0,0,0.0301,0.0301,0.0302,0.0309,0.031,0.0304,0.0304,0.0287,0.0294,0.0308,0.0309,0.0309,0.0289,0.0285,0.0283,0.0256,0.0276,0.0274,0.0273,0.0273,0.0232,0.0232,0,0,0,0,0,0,0.0303,0.0301,0.0303,0.0302,0.0307,0.0303,0.0304,0.0306,0.0295,0.0294,0.0308,0.0309,0.0287,0.0285,0.0282,0.0275,0.0274,0.0272,0.0272,0.0232,0.0232,0.0231,0,0,0,0,0,0,0.0303,0.0304,0.0303,0.0302,0.0301,0.0303,0.0305,0.0305,0.0312,0.0295,0.0294,0.0316,0.0288,0.0284,0.027,0.0274,0.0272,0.027,0.0232,0.0232,0.0232,0.0249,0,0,0,0,0,0,0.0303,0.0304,0.031,0.0302,0.0301,0.0302,0.0304,0.0305,0.031,0.0312,0.0301,0.0299,0.0288,0.0273,0.0269,0.0271,0.0269,0.0232,0.0232,0.0232,0.0248,0.0249,0.025,0,0,0,0,0,0.0303,0.0309,0.031,0.0311,0.0309,0.0302,0.0301,0.0304,0.031,0.0313,0.0303,0.03,0.0269,0.0271,0.0266,0.0269,0.0232,0.0232,0.0232,0.0248,0.0249,0.025,0,0,0,0,0,0,0.0309,0.031,0.0312,0.0317,0.0313,0.0304,0.0308,0.0308,0.0303,0.0307,0.0293,0.029,0.028,0.027,0.0273,0.0256,0.0252,0.025,0.0266,0.0266,0.0267,0.0279,0.0268,0,0,0,0,0,0.0313,0.032,0.0314,0.0319,0.0319,0.0315,0.0315,0.0315,0.0308,0.0307,0.0303,0.0291,0.0272,0.0267,0.0252,0.024,0.0217,0.024,0.024,0.0241,0.0247,0.022,0.0218,0.0231,0.0231,0.0231,0,0,0.0317,0.0319,0.0323,0.0322,0.032,0.0318,0.0317,0.0318,0.032,0.0303,0.0309,0.0294,0.0269,0.0257,0.0252,0.0251,0.022,0.0241,0.0242,0.0248,0.0219,0.0218,0.0217,0.023,0.023,0.0231,0,0,0.0325,0.0329,0.0336,0.0335,0.0334,0.0328,0.0331,0.0329,0.0333,0.0327,0.0315,0.0302,0.0284,0.0266,0.0252,0.0247,0.0225,0.0247,0.0261,0.0233,0.0232,0.0231,0.0176,0.017,0.0248,0.0248,0.0248,0,0.033,0.0337,0.0336,0.0341,0.0344,0.0334,0.034,0.0334,0.0331,0.0333,0.0333,0.0303,0.0286,0.026,0.0262,0.0249,0.0224,0.0259,0.0235,0.0233,0.0232,0.0176,0.0169,0.0249,0.0249,0.0249,0.0249,0,0.0341,0.0347,0.035,0.0354,0.0356,0.0358,0.0352,0.0355,0.0358,0.0353,0.0342,0.0314,0.0299,0.0288,0.0273,0.0254,0.0234,0.0238,0.0234,0.0231,0.0173,0.0165,0.025,0.025,0.025,0.0249,0,0,0.035,0.0357,0.036,0.0367,0.0366,0.0369,0.037,0.0368,0.0371,0.0363,0.0362,0.033,0.0325,0.0309,0.0287,0.0263,0.022,0.0252,0.025,0.02,0.014,0.0131,0.0121,0.0224,0.0224,0.0223,0.0094,0,0.0359,0.0373,0.0375,0.0387,0.0392,0.039,0.0393,0.0393,0.0386,0.0381,0.0353,0.0344,0.0329,0.0324,0.0296,0.0237,0.0206,0.0254,0.0149,0.0145,0.014,0.0115,0.0221,0.0089,0.0087,0.0086,0.0085,0,0.0371,0.0378,0.0395,0.0409,0.0413,0.0423,0.0432,0.0433,0.0417,0.0413,0.0396,0.0376,0.0331,0.033,0.0226,0.0258,0.0209,0.0163,0.0157,0.0142,0.0123,0.0096,0.0071,0.0072,0.0073,0.0074,0.0075,0,0.0382,0.0395,0.0412,0.0416,0.0426,0.0443,0.0454,0.045,0.0457,0.0439,0.0436,0.0381,0.0355,0.0286,0.0191,0.0213,0.0069,0.0084,0.0023,0.002,0.0059,0.0062,0.0027,0.0027,0.0027,0.0027,0.0028,0,0.0388,0.0402,0.0423,0.0432,0.0459,0.0468,0.0494,0.0491,0.0491,0.0493,0.0462,0.0436,0.0351,0.0263,0.0181,0.0061,0.0056,0.0016,-0.0009,0.0065,0.007,0.0052,0.0057,0.0023,0.0024,0.0025,0.0025,0,0.0392,0.0403,0.0424,0.045,0.0465,0.0489,0.053,0.0543,0.0539,0.0536,0.0536,0.0469,0.0356,0.0245,0.0109,0.0049,-0.0066,-0.0099,-0.0045,-0.0064,-0.0097,-0.009,-0.0181,-0.0182,-0.0183,-0.0184,-0.0185,0,0.0391,0.0402,0.0443,0.0463,0.048,0.052,0.0548,0.0567,0.0576,0.0547,0.0538,0.045,0.0392,0.0162,0.006,-0.0116,-0.0116,-0.0183,-0.0102,-0.01,-0.0116,-0.0107,-0.0099,-0.0186,-0.0187,-0.0187,-0.0187,0,0.0386,0.0407,0.0428,0.0471,0.0511,0.0543,0.0581,0.0591,0.06,0.0604,0.053,0.0436,0.0304,0.0155,0.0018,-0.0099,-0.0148,-0.0194,-0.0191,-0.0116,-0.0108,-0.0121,-0.0112,-0.0191,-0.019,-0.019,-0.019,0,0.0386,0.0401,0.0435,0.0472,0.0518,0.0543,0.0568,0.0573,0.0582,0.056,0.0527,0.0402,0.0337,0.0161,0.0025,-0.0087,-0.0088,-0.0105,-0.0107,-0.0104,-0.0027,-0.0003,-0.0082,0,0,0,0,0,0.0379,0.0395,0.0431,0.0466,0.0512,0.0533,0.0575,0.0593,0.0609,0.0561,0.0548,0.0428,0.0248,0.0162,0.005,0.0018,-0.0108,-0.0117,-0.0129,-0.0212,-0.0207,-0.0128,0,0,0,0,0,0,0.0371,0.0405,0.0423,0.0455,0.0475,0.0516,0.054,0.0551,0.0522,0.0524,0.0423,0.0401,0.0218,0.0304,0.0043,0.0011,-0.0009,-0.0194,-0.0196,-0.0214,-0.021,-0.0207,-0.0124,0,0,0,0,0]}]]